Theta_e
290 290 290 290 290 290 290 290 290 289 289 289 289 289 289 289 289 289 289 289 289 289 289 289 289 289 289 289 289 289 289 289 288 288 288 288 288 288 288 288 288 288 289 289 289 289 289 290 291 292 294 295 296 297 297 296 296 295 295 295 295 295 295 294 294 294 294 294 294 294 294 295 295 296 296 296 297 297 298 298 298 299 299 299 298
290 290 290 290 290 290 289 289 289 289 289 289 289 289 289 289 289 289 289 288 288 288 288 288 288 288 288 288 288 288 288 288 288 288 288 288 288 288 288 288 288 288 288 288 288 288 288 288 288 289 289 291 293 295 296 296 296 295 295 295 295 295 294 294 294 294 294 294 294 294 294 294 295 295 296 296 296 296 297 297 298 298 298 299 299
290 290 290 290 290 290 289 289 289 289 289 289 289 289 289 288 288 288 288 288 288 288 287 287 287 287 287 287 287 287 287 287 287 287 287 288 288 288 288 288 287 287 287 287 287 288 288 288 288 288 288 288 289 290 292 294 295 296 296 295 295 294 294 294 294 294 294 294 294 294 294 294 294 294 295 295 296 296 296 296 297 297 298 298 298
290 290 290 290 290 290 290 289 289 289 289 289 288 288 288 288 288 288 287 287 287 287 287 287 287 287 287 287 287 287 287 287 287 287 287 287 287 287 287 287 287 287 287 287 287 287 287 287 288 288 287 287 287 287 288 290 292 294 295 295 295 294 294 294 294 294 293 294 294 294 293 293 294 294 294 295 295 296 296 296 296 297 297 297 298
290 290 290 290 290 290 290 289 289 289 289 288 288 288 288 288 287 287 287 287 287 286 286 286 286 286 286 286 286 286 286 286 286 286 287 286 286 286 286 286 287 287 287 287 287 287 287 287 287 287 287 287 287 287 287 287 288 289 292 294 295 295 294 294 294 293 293 293 293 293 293 293 293 293 293 294 294 295 295 296 296 296 296 297 297
290 290 290 290 290 290 290 289 289 289 288 288 288 288 288 287 287 287 286 286 286 286 285 285 285 285 285 285 285 285 286 286 286 286 286 286 286 286 286 286 286 286 286 286 287 287 287 287 287 287 287 287 287 287 287 287 287 287 288 289 292 294 295 294 294 293 293 293 293 293 293 293 293 293 293 293 293 294 295 295 296 296 296 296 297
290 290 290 290 290 290 290 289 289 288 288 288 288 288 287 287 287 286 286 286 285 285 285 285 285 285 285 285 285 285 285 285 286 286 286 286 285 285 286 286 286 286 286 286 286 286 286 286 286 286 286 286 286 287 287 287 287 287 287 287 288 290 293 294 294 293 293 293 293 292 292 292 293 293 294 293 293 293 294 295 295 296 296 296 296
290 290 290 290 290 290 289 289 289 288 288 287 287 287 287 286 286 285 285 285 284 285 285 285 285 285 285 285 285 285 285 285 285 285 285 285 284 284 284 284 284 285 285 285 285 285 285 285 286 286 286 286 286 286 286 287 287 287 286 286 287 287 289 292 294 294 293 293 293 293 292 292 292 292 292 292 293 293 293 293 294 295 295 296 296
290 290 290 290 290 289 289 289 288 288 287 287 287 286 286 285 285 284 284 284 284 284 284 284 284 284 284 284 284 284 284 284 284 284 283 283 283 283 282 283 283 283 283 284 284 285 285 285 285 285 285 285 285 285 285 286 286 286 287 286 286 286 286 288 291 293 293 293 293 293 292 291 291 291 291 292 293 293 293 292 293 294 294 295 296
290 290 290 289 289 288 288 288 288 287 287 286 286 285 285 284 284 284 284 284 284 284 284 284 284 284 284 284 284 284 284 284 284 283 282 281 281 281 281 282 282 282 282 282 283 284 284 284 285 285 285 285 285 285 285 285 285 286 286 286 286 286 286 286 287 290 292 292 292 292 291 291 291 291 290 291 292 292 292 292 292 292 293 294 294
289 288 288 288 287 287 287 287 287 286 286 285 285 284 284 284 284 284 284 284 284 284 284 284 284 283 283 283 283 283 283 283 283 282 281 280 279 280 280 280 281 281 281 281 282 282 283 283 284 284 284 284 284 285 285 284 284 285 285 286 286 286 286 286 286 287 289 291 292 292 290 291 292 291 290 290 290 290 291 291 291 291 292 292 293
288 288 287 287 287 287 286 286 285 285 284 284 284 284 284 284 284 284 284 284 284 284 284 284 284 283 283 283 283 282 282 283 281 280 279 279 278 278 279 279 279 280 280 280 281 281 281 282 282 283 283 283 283 284 284 284 284 284 284 284 285 285 286 286 286 286 287 288 291 292 291 292 292 291 290 290 290 290 290 290 290 291 291 291 292
287 287 287 286 286 285 285 284 284 284 283 283 283 283 283 283 283 283 283 284 284 284 284 283 283 283 282 282 282 282 283 282 281 279 279 278 276 276 277 277 278 278 279 279 280 280 281 281 281 282 282 282 282 283 283 283 283 283 283 283 284 284 285 286 286 286 286 286 288 289 290 292 292 292 291 290 290 290 290 290 290 290 290 290 291
287 286 286 285 284 284 284 283 283 283 283 283 283 283 283 283 283 283 283 283 283 283 283 283 283 282 282 281 281 282 282 281 279 278 277 276 275 275 275 276 276 277 277 278 278 279 279 280 280 281 281 282 282 282 282 282 282 282 282 283 283 284 284 284 285 286 286 286 286 286 287 289 291 292 292 290 289 289 290 290 290 290 290 290 291
286 285 285 284 284 283 283 283 283 283 283 283 283 283 282 282 282 282 282 282 282 282 282 282 282 281 281 280 279 280 280 278 277 276 275 274 274 274 274 274 275 276 276 276 277 277 278 278 279 279 280 280 281 281 281 282 282 282 282 282 282 283 283 284 284 285 285 285 286 286 286 287 288 290 291 291 290 289 290 289 289 290 290 290 290
285 284 284 283 283 283 283 283 283 282 282 282 282 282 282 282 282 281 281 282 281 281 281 281 280 280 279 278 277 277 278 276 275 274 274 273 273 273 273 273 274 274 275 275 275 276 276 277 277 278 279 279 280 280 281 282 282 282 282 282 282 282 283 283 283 284 284 285 285 286 286 286 286 287 289 291 290 290 289 289 289 289 289 289 289
284 283 283 283 283 282 282 282 282 282 282 282 282 282 281 281 281 281 281 281 281 280 280 279 278 277 276 275 274 275 275 274 273 273 272 272 272 271 271 271 272 273 273 273 274 274 274 275 276 277 278 278 278 279 280 281 282 282 283 283 283 283 283 283 283 283 283 284 285 285 285 286 286 285 286 289 290 290 289 289 289 289 289 288 289
283 283 283 282 282 282 282 282 281 281 281 281 281 281 281 281 281 280 280 280 280 279 278 277 276 275 274 274 273 273 273 273 272 271 271 271 271 270 270 270 270 271 272 272 273 273 273 274 274 275 276 276 277 278 279 280 281 281 282 282 283 283 283 283 282 282 282 283 283 284 285 285 286 286 285 286 288 289 289 289 289 289 288 288 288
283 282 282 282 282 281 281 281 281 281 281 280 280 280 280 280 280 280 279 279 278 278 276 275 275 273 273 273 272 272 272 272 271 271 271 271 270 269 269 269 269 270 270 271 271 272 272 273 273 274 274 275 276 277 278 279 280 280 281 282 282 282 282 282 282 283 283 283 283 283 284 285 285 286 286 285 286 288 289 289 289 289 288 288 288
282 282 282 282 281 281 281 280 280 280 280 280 280 280 280 279 279 279 278 277 277 276 275 274 273 273 272 272 272 271 271 271 271 270 270 270 269 268 268 268 269 269 269 269 270 270 271 272 272 273 274 275 276 277 277 278 279 279 280 281 282 282 283 283 283 283 283 283 283 282 283 284 285 285 285 285 285 286 288 289 289 289 288 288 288
282 282 282 281 281 280 280 280 280 280 280 280 280 280 279 279 278 278 277 277 275 274 273 273 272 272 272 271 271 271 270 270 269 269 269 269 269 268 268 268 268 269 269 269 270 270 271 271 271 272 273 274 275 276 277 278 278 279 279 279 280 281 282 282 282 283 283 283 283 283 282 283 284 284 285 285 285 285 287 288 289 289 288 288 288
281 281 281 281 280 280 280 280 280 279 279 279 279 279 279 278 278 277 276 275 274 273 272 272 272 271 271 271 270 270 270 269 268 268 268 268 268 268 268 268 269 269 269 270 270 270 270 270 270 271 271 272 273 274 275 276 277 278 278 279 280 280 281 281 281 282 283 283 284 284 283 283 283 284 284 285 285 284 285 287 289 289 289 289 288
281 281 281 280 280 280 279 279 279 279 279 278 278 279 278 278 277 276 275 274 273 272 272 272 271 271 270 270 270 270 269 269 268 268 268 268 268 268 268 269 269 270 270 270 270 270 270 270 270 271 271 272 272 273 274 274 275 276 277 278 279 280 280 281 281 282 283 284 284 285 284 284 284 284 284 284 285 285 284 285 288 289 289 288 288
281 281 280 280 280 279 279 279 279 278 278 278 278 278 278 277 277 275 274 273 272 272 272 271 270 270 270 270 270 270 269 268 268 268 267 267 268 268 268 269 270 270 270 270 270 270 270 270 271 271 272 273 273 274 274 274 274 275 276 276 277 278 279 280 281 281 282 283 284 285 285 285 284 284 284 284 284 285 284 284 286 288 288 288 288
280 280 280 279 279 279 279 278 278 278 278 278 278 277 277 276 276 275 273 273 272 272 271 271 270 269 269 268 268 268 268 267 267 267 267 268 268 269 269 270 270 270 270 270 270 270 271 271 272 272 273 273 273 273 273 273 273 274 274 275 276 276 277 278 279 280 281 282 283 284 285 285 285 284 284 284 284 285 285 284 284 286 287 287 287
280 280 279 279 278 278 278 278 278 278 278 277 277 276 276 275 274 274 273 272 272 271 271 270 270 269 267 267 267 267 267 267 267 267 268 268 269 270 270 270 270 271 271 271 271 271 272 272 272 273 273 273 273 273 273 273 273 273 274 274 274 275 276 276 277 278 279 281 282 283 284 285 285 285 284 285 285 285 284 284 284 285 286 287 287
279 279 279 278 278 277 277 278 278 278 277 277 276 276 275 274 273 273 273 272 271 270 270 269 269 268 266 266 267 267 267 267 267 268 268 269 270 271 271 271 271 271 271 272 272 272 272 273 273 273 273 273 273 273 273 273 273 273 273 273 273 274 275 275 276 277 278 279 281 282 284 285 285 285 285 285 286 285 285 284 284 285 286 286 287
279 278 278 277 277 277 277 277 277 277 277 276 276 275 274 274 273 273 273 272 270 268 268 267 267 267 267 267 267 267 268 268 268 268 269 270 271 271 272 272 272 272 272 272 273 273 273 273 273 273 273 273 273 273 273 273 273 273 273 273 273 274 274 275 276 277 277 278 280 281 283 285 285 285 285 285 285 285 285 284 284 284 285 286 286
278 278 277 277 276 276 277 277 277 277 276 276 275 275 274 273 272 272 272 271 269 267 266 266 266 267 267 267 268 268 268 268 269 269 270 271 272 272 273 273 273 273 273 273 273 273 273 273 273 273 273 273 273 273 273 273 273 273 273 273 273 274 274 275 276 276 277 279 280 281 282 284 285 285 285 285 285 285 285 284 284 284 285 286 286
277 277 276 276 276 276 276 276 276 276 276 275 275 275 274 274 272 271 271 271 270 269 267 267 267 267 268 268 268 268 268 269 269 270 271 272 273 273 273 273 273 273 274 274 274 274 273 273 273 273 273 272 272 272 272 272 273 273 273 273 273 273 274 274 275 276 277 278 280 281 281 283 284 284 285 285 285 285 284 284 284 284 285 286 286
277 276 275 275 275 275 276 276 276 275 275 275 274 274 274 274 274 273 271 271 271 270 270 269 268 268 268 268 268 268 268 269 269 270 271 272 273 273 273 273 273 273 274 274 274 273 273 273 273 273 273 272 272 273 273 273 273 273 273 273 273 273 274 274 275 275 276 277 280 281 281 282 283 284 285 285 285 284 284 284 284 284 285 285 286
276 275 275 274 275 275 275 275 275 275 275 274 274 273 273 273 274 275 274 272 271 271 271 270 270 269 269 269 268 268 268 269 269 270 271 271 273 273 273 273 273 273 274 274 273 273 273 272 272 273 273 273 273 273 273 273 273 273 273 273 273 274 274 274 274 275 276 277 278 281 282 283 283 285 285 285 285 285 284 284 284 284 284 285 285
274 274 274 274 274 274 275 275 275 275 274 274 273 273 272 272 273 274 274 274 273 272 271 271 270 270 270 270 270 269 268 269 269 270 270 271 272 273 273 273 273 273 273 273 272 272 272 272 273 273 273 273 273 273 272 272 272 273 273 273 273 274 274 274 274 274 275 276 278 280 282 283 283 284 284 284 284 284 284 284 284 284 284 284 284
273 273 273 273 273 274 274 274 274 274 274 273 273 272 272 272 271 271 271 272 274 275 274 273 271 270 270 271 271 270 269 270 270 270 270 271 272 273 273 273 273 273 273 273 272 272 272 273 273 273 272 272 271 271 271 272 272 272 273 273 274 274 274 275 274 274 275 276 278 280 282 283 283 283 283 284 284 284 284 284 284 284 284 284 284
273 273 272 272 273 273 274 274 274 273 273 273 273 272 272 272 271 271 269 269 270 272 274 274 274 272 271 271 271 271 271 271 272 271 271 270 271 272 272 272 273 273 274 274 273 273 273 272 272 272 272 271 271 271 271 271 272 272 273 273 274 274 275 275 274 274 275 276 278 280 282 284 284 284 284 284 284 285 285 284 284 284 284 284 284
272 272 272 272 272 273 273 273 273 273 273 272 272 272 272 272 271 271 270 269 269 270 271 273 274 273 273 272 272 272 272 272 272 272 271 270 270 271 271 272 272 273 273 273 273 272 272 272 272 272 272 272 272 271 271 271 272 272 273 273 274 275 275 275 275 275 275 276 277 279 282 283 283 284 284 283 284 284 284 284 284 283 284 284 283
272 272 272 272 273 273 273 273 272 272 272 272 272 272 272 272 271 271 270 270 269 270 271 271 272 273 274 273 273 272 273 273 273 272 272 271 272 272 272 272 271 271 272 272 272 273 273 273 273 273 273 273 272 272 272 273 273 274 274 274 274 275 275 275 275 275 275 276 277 278 280 281 282 282 282 283 283 283 283 283 283 283 283 283 283
272 272 272 272 272 273 273 272 272 272 272 272 272 272 272 272 271 271 270 270 270 270 270 271 271 271 272 272 273 273 273 273 273 273 273 273 273 273 273 272 272 271 272 272 272 273 273 273 273 273 273 273 274 274 274 275 276 276 276 276 275 276 276 275 275 275 275 276 277 278 280 281 281 281 281 282 283 283 283 283 283 283 283 282 282
271 271 271 272 272 272 272 272 272 272 272 272 272 272 272 272 271 271 270 270 271 270 270 270 270 269 269 270 271 270 271 271 272 273 273 273 273 273 272 273 273 273 273 273 273 273 274 274 274 274 274 274 275 275 276 276 277 277 277 277 277 276 276 276 275 275 276 276 277 279 281 281 281 280 280 281 281 281 282 282 282 283 282 282 282
271 271 271 271 272 272 272 272 272 272 272 272 272 272 272 271 270 270 270 270 271 271 270 270 270 269 268 268 267 266 267 269 271 272 272 272 273 272 272 272 272 272 273 273 273 273 274 274 274 274 274 274 275 276 276 277 278 278 278 278 278 277 277 277 276 276 277 277 277 279 280 280 280 280 280 281 281 281 281 282 282 282 282 282 282
271 271 271 271 271 272 272 272 272 272 272 272 272 272 272 271 270 270 270 270 271 271 270 270 269 268 268 268 266 265 267 269 270 270 271 271 271 271 271 271 271 271 272 272 273 273 273 273 273 273 274 275 275 276 276 277 278 278 278 278 278 278 278 278 278 278 278 278 278 279 279 280 280 280 280 280 281 281 281 281 282 282 282 281 281
270 270 270 271 271 271 271 271 271 272 272 272 272 272 271 271 270 270 270 270 271 271 270 270 269 269 269 269 268 268 269 269 270 270 270 270 270 270 270 270 270 270 271 271 271 272 272 272 272 273 273 274 275 276 276 277 278 278 278 278 278 278 278 278 279 279 279 279 279 279 280 280 280 280 280 280 280 281 281 281 281 281 281 280 280
270 270 270 270 271 271 271 271 271 271 271 271 271 271 271 270 270 270 270 270 270 270 270 270 270 270 269 269 270 270 270 270 269 269 270 270 270 269 269 269 270 270 270 270 270 271 271 272 272 272 273 273 274 275 275 276 277 278 278 279 279 279 279 279 279 280 280 280 280 280 280 280 280 280 280 281 280 281 281 281 280 280 280 280 279
270 270 270 270 270 270 271 271 271 271 271 271 271 270 270 270 270 270 270 270 270 269 269 269 269 269 270 270 270 270 270 269 269 269 269 269 269 269 269 269 270 270 270 270 270 270 270 271 272 272 273 273 274 274 274 275 276 277 278 278 278 278 279 279 279 279 279 280 280 281 281 281 281 280 280 281 280 280 280 280 280 279 279 279 278
269 269 269 270 270 270 270 270 270 270 270 270 270 270 270 270 270 270 270 270 269 269 269 269 269 269 269 269 269 269 269 269 269 269 269 269 269 269 269 269 270 270 270 270 270 270 270 270 271 272 272 273 273 274 274 275 275 276 276 277 278 278 278 278 278 278 278 279 279 279 279 280 280 280 280 280 280 279 279 279 279 279 278 278 277
269 269 269 269 270 270 270 270 270 270 270 270 270 270 270 270 270 270 269 269 269 269 269 269 269 269 269 269 269 269 269 269 269 269 269 269 269 269 269 269 270 270 270 270 270 270 270 270 270 271 271 272 273 274 274 274 275 275 275 276 276 276 277 277 277 277 278 278 278 278 278 278 278 278 278 278 278 278 278 278 278 278 277 277 277
269 269 269 269 269 269 270 270 270 270 269 269 269 270 270 269 269 269 269 269 269 269 269 269 269 269 269 269 269 269 269 269 269 269 269 269 269 269 269 270 270 270 270 270 270 270 270 270 270 270 270 271 271 272 273 274 274 274 274 275 275 275 275 275 276 276 276 277 277 276 276 277 277 277 277 277 277 277 277 277 276 276 276 276 275
269 269 268 268 269 269 269 269 269 269 269 269 269 269 269 269 269 269 269 269 269 269 269 269 269 269 269 269 269 269 269 269 269 269 269 269 269 270 269 270 270 270 270 271 271 271 271 270 271 271 271 270 270 271 271 272 273 273 273 274 274 274 274 275 275 275 275 275 276 276 275 275 275 276 276 276 276 276 276 276 275 275 275 274 274
269 268 268 268 268 268 269 269 269 269 269 269 269 269 269 269 269 269 269 268 268 268 268 268 268 268 268 268 268 268 269 269 269 269 269 269 269 270 270 270 270 270 270 270 271 271 271 271 270 270 271 271 270 270 270 271 271 272 272 272 273 273 274 274 274 274 274 275 275 275 275 274 274 274 274 275 275 275 274 274 274 274 274 273 273
268 268 268 268 268 268 268 268 268 269 269 269 268 268 268 268 268 268 268 268 268 268 268 268 268 268 268 268 268 268 268 268 268 269 269 269 269 269 270 270 270 270 270 270 270 271 271 271 270 270 270 270 270 270 270 270 270 271 271 272 272 272 273 273 273 273 273 274 274 274 274 274 274 274 274 274 273 273 273 273 273 273 273 273 272
268 268 268 268 268 268 268 268 268 268 268 268 268 268 268 268 268 268 268 268 268 268 268 268 268 268 268 268 268 268 268 268 268 268 268 268 269 269 269 269 270 270 270 270 270 271 271 271 271 270 270 270 270 270 270 270 270 270 271 271 272 272 272 272 272 272 272 272 272 273 273 273 273 273 273 273 273 273 273 272 272 272 272 272 272
Wind_Speed
10 10 11 12 12 12 12 13 14 15 15 16 16 17 17 18 18 18 18 19 20 20 20 21 22 22 23 23 24 25 26 26 27 28 28 29 28 28 28 28 28 27 27 26 25 26 28 29 30 29 28 29 30 31 34 35 36 36 36 37 38 39 39 40 46 53 53 49 48 47 44 44 45 46 45 44 43 43 43 43 43 44 45 46 45
14 15 16 16 16 17 17 17 17 18 18 18 19 20 20 21 21 22 21 21 21 22 22 22 23 24 25 25 25 26 26 27 28 29 30 31 32 32 32 32 32 31 31 30 29 28 30 31 31 31 29 30 30 29 30 31 33 36 36 36 38 39 38 40 44 50 53 50 48 47 46 45 46 47 46 47 46 44 45 45 44 44 44 45 46
16 18 18 19 20 21 21 22 22 22 21 21 21 21 22 23 23 24 25 24 24 24 24 25 25 26 26 27 28 28 28 29 29 30 31 32 33 34 35 36 36 36 35 34 33 32 32 34 34 33 32 33 33 31 30 30 30 33 35 36 38 39 37 38 42 47 51 50 48 48 47 46 48 48 46 46 46 46 47 48 46 46 45 45 46
18 20 20 21 22 23 25 26 26 27 27 26 26 25 25 25 25 26 26 27 27 27 27 28 29 29 29 29 30 30 31 32 32 33 33 33 35 36 36 37 38 39 40 39 38 36 35 35 36 35 35 35 35 34 32 31 30 30 32 33 36 39 38 38 40 43 46 49 49 48 47 47 49 48 45 45 45 46 48 49 49 49 48 47 47
19 21 22 22 23 25 27 28 29 30 30 31 31 31 31 31 30 30 29 29 29 29 30 31 32 33 33 34 34 34 34 35 35 36 36 37 37 38 39 39 40 40 41 42 42 41 40 39 38 37 36 37 38 37 34 33 32 31 32 31 32 35 37 38 40 41 42 47 49 47 46 47 48 48 47 46 46 46 48 49 51 51 51 50 50
19 20 22 23 24 26 28 30 31 31 32 32 33 33 34 34 34 33 33 33 34 34 34 34 35 36 37 38 39 39 39 40 40 40 41 41 41 42 42 43 43 43 43 43 43 43 43 44 43 41 38 38 39 39 37 35 34 34 34 33 31 31 34 37 39 40 42 46 47 46 46 47 48 49 49 48 47 46 47 49 51 53 53 53 53
18 19 22 23 24 26 28 30 30 31 32 33 34 34 34 35 35 35 35 36 37 38 39 39 40 41 42 42 43 43 44 45 45 46 46 46 46 46 46 46 46 47 47 46 46 45 45 45 46 46 44 42 40 39 39 38 37 36 35 34 33 32 33 34 36 39 43 46 47 47 46 46 46 48 49 48 48 49 49 49 51 53 54 55 54
19 20 21 23 24 26 28 29 29 30 32 33 34 34 34 34 35 36 37 38 39 41 42 43 44 45 46 46 47 47 48 48 49 49 50 50 50 50 50 50 50 49 50 50 49 49 48 47 47 48 48 47 45 42 40 39 39 39 38 35 34 34 34 35 35 38 41 44 47 48 46 45 45 45 46 46 49 53 53 51 51 52 53 54 55
20 21 22 24 26 28 29 30 30 32 33 35 34 34 34 35 36 37 38 40 41 43 44 45 47 48 48 49 50 50 51 52 52 51 50 50 50 51 51 52 51 51 51 52 52 52 52 51 51 50 50 49 49 48 45 42 40 41 41 39 36 36 35 36 36 38 40 43 46 47 46 46 47 45 45 47 51 54 54 52 53 54 53 53 54
21 22 24 26 28 29 30 31 32 33 34 34 34 35 36 37 39 40 41 42 44 45 46 47 48 49 49 50 51 51 51 52 52 52 49 47 46 46 46 48 48 49 50 52 53 54 54 54 54 54 53 51 51 50 50 48 45 43 42 41 39 38 38 37 37 38 40 42 45 46 45 47 49 47 46 48 48 49 50 52 54 54 52 53 55
23 24 25 27 28 29 31 32 33 33 33 34 35 37 38 40 41 43 44 46 46 47 48 48 49 49 49 50 50 51 51 52 51 50 49 47 43 42 43 45 46 48 49 50 52 54 54 55 55 56 56 55 54 53 52 52 50 48 45 43 41 41 40 40 40 39 41 43 45 46 45 48 51 47 44 46 45 45 48 50 52 52 52 55 57
24 25 26 27 29 30 30 31 31 32 34 36 37 39 40 41 43 44 46 47 47 48 49 49 49 49 50 50 51 52 53 53 52 51 50 49 45 42 42 44 46 47 48 49 51 52 53 53 53 54 55 55 55 54 54 54 53 52 50 47 44 42 41 42 43 42 42 43 45 47 47 49 51 48 44 44 44 44 45 47 49 52 53 55 57
26 27 27 28 29 28 29 30 32 34 36 38 39 41 42 43 44 44 46 46 47 48 49 49 50 50 51 52 53 54 55 55 54 53 52 50 47 43 43 45 47 48 49 49 50 52 52 53 52 53 53 53 53 53 54 55 54 53 52 49 47 45 43 43 44 44 44 44 46 48 48 48 50 49 45 44 43 42 44 46 48 50 52 55 57
26 27 27 27 28 28 31 33 35 37 38 39 40 42 42 43 44 44 45 46 47 48 49 50 51 52 53 54 55 56 57 56 55 54 52 50 47 44 43 45 48 49 50 51 51 51 51 51 52 53 53 53 53 52 52 52 53 53 52 50 49 47 45 44 44 45 45 46 48 49 48 47 49 49 47 45 44 43 44 45 46 48 50 53 54
27 27 27 27 29 31 33 35 36 38 39 40 41 41 42 43 43 44 45 46 48 49 51 52 53 54 54 54 55 57 57 54 52 51 48 46 45 43 44 46 48 49 51 51 51 51 51 51 52 53 54 54 53 52 50 49 49 50 51 52 51 50 49 48 47 46 47 47 48 50 49 48 48 48 48 47 47 47 46 45 45 45 46 47 50
27 27 28 29 32 34 35 36 37 38 39 40 41 41 42 43 43 45 46 48 49 51 52 53 53 54 54 53 52 54 53 49 47 45 43 41 40 40 41 44 45 47 48 48 48 48 48 49 49 50 50 50 49 46 45 45 46 47 49 51 52 52 52 52 51 49 48 47 48 49 49 48 47 46 47 47 48 48 47 45 44 43 43 45 48
27 28 30 32 34 35 36 37 38 38 39 39 40 41 41 43 44 45 47 49 51 52 52 53 52 51 51 49 47 49 49 45 42 40 39 37 36 35 36 39 41 43 44 45 45 46 48 48 48 48 48 49 47 44 41 41 43 45 47 49 50 51 54 55 55 53 51 49 48 48 48 48 47 46 46 45 46 47 45 45 45 44 45 47 49
28 29 31 33 34 35 36 36 37 38 38 39 40 41 42 43 45 46 48 50 52 52 52 52 50 48 46 45 43 44 45 42 38 37 36 33 30 30 31 34 36 38 39 39 39 40 41 41 41 42 46 48 46 44 41 41 42 45 47 48 49 51 53 55 55 55 53 50 49 48 48 47 47 47 46 45 44 45 45 47 47 46 46 48 51
30 31 33 34 34 35 35 35 36 37 38 39 40 42 43 44 45 46 47 49 50 51 49 49 49 46 43 42 41 40 42 41 37 34 33 30 27 27 30 32 34 35 35 36 36 35 35 36 35 36 40 42 42 42 40 40 41 44 46 48 50 53 55 55 54 53 52 51 50 49 48 47 46 46 47 46 45 44 46 48 48 47 47 50 51
32 33 34 34 34 34 34 34 35 36 38 39 41 42 43 45 45 46 47 47 48 49 47 46 46 44 41 40 39 38 39 39 35 32 30 27 25 26 29 32 34 36 36 36 38 37 36 35 34 33 33 35 37 38 39 39 41 44 45 47 50 51 50 48 48 48 49 50 51 50 49 48 46 46 47 47 45 44 45 47 48 49 49 50 50
33 33 34 34 34 33 33 34 35 36 38 39 41 43 43 44 45 46 46 46 46 46 44 42 42 41 39 38 38 36 35 34 32 29 27 25 23 24 28 31 33 35 36 37 38 38 36 35 33 31 30 32 34 34 35 36 37 40 44 48 50 50 47 47 47 47 48 50 50 50 50 49 48 47 48 48 46 44 43 44 47 49 50 51 51
34 34 34 34 33 33 33 34 35 36 38 39 41 43 43 43 44 44 44 44 44 43 41 39 39 39 38 36 35 34 31 28 27 26 25 25 24 25 29 31 32 34 37 39 39 39 38 37 36 34 32 33 35 35 37 37 37 39 41 42 44 45 47 49 50 49 50 51 51 51 50 50 50 50 49 48 46 44 43 42 44 46 49 52 53
34 34 34 34 33 33 34 34 35 36 38 39 40 42 42 42 43 43 42 42 42 41 39 37 37 38 37 35 33 30 28 26 26 27 28 28 27 27 30 32 32 33 36 39 40 40 40 40 39 37 35 34 35 36 37 39 41 43 43 41 40 41 42 46 48 49 50 50 50 51 51 51 51 50 50 49 46 44 43 43 43 44 46 49 52
33 33 33 34 34 34 34 35 35 36 37 38 39 40 41 41 41 41 39 39 40 39 37 35 35 36 35 34 32 29 29 30 31 31 32 32 30 28 29 30 30 31 33 37 39 40 41 41 40 38 37 36 37 37 37 38 39 42 44 43 42 41 42 44 46 47 49 50 50 50 51 51 51 50 50 49 46 43 43 43 43 43 43 44 47
33 33 33 34 33 34 34 35 35 36 36 37 38 38 38 39 39 39 38 37 37 36 35 34 34 34 34 35 35 35 35 37 37 36 35 34 31 28 27 27 28 29 32 35 37 38 39 39 38 37 36 36 36 37 37 37 37 38 40 41 43 45 45 45 45 44 47 50 51 51 50 51 51 51 49 47 45 43 43 43 42 41 40 41 43
33 33 33 33 33 33 34 35 36 36 36 36 36 36 36 36 37 37 36 35 34 34 34 34 34 34 36 37 39 40 40 40 40 39 37 34 32 31 31 31 30 30 31 33 34 35 35 35 35 36 37 37 37 37 38 37 37 37 37 39 42 46 48 48 48 47 47 48 50 51 51 50 49 49 48 46 45 45 44 42 41 40 39 39 41
33 34 33 33 33 33 34 35 36 36 36 35 35 34 33 33 34 35 34 34 33 33 33 33 34 36 38 39 40 40 41 41 40 39 37 36 37 37 37 36 35 34 35 37 37 37 37 38 38 38 38 38 38 38 39 40 39 39 38 38 39 42 44 46 47 49 51 50 50 50 50 49 47 45 45 44 45 46 44 41 40 39 38 38 40
33 33 33 32 32 32 33 35 35 36 35 35 34 34 32 31 32 33 31 31 33 33 33 34 36 36 37 39 40 40 40 40 39 38 36 36 37 37 37 37 38 38 39 40 41 41 41 40 40 39 38 38 39 40 41 41 41 41 41 40 39 39 41 42 43 46 49 51 51 50 48 46 45 44 43 43 44 45 43 41 39 39 37 37 39
33 33 32 32 32 32 33 34 34 35 35 35 34 32 30 29 31 33 31 28 28 31 32 33 35 36 36 36 37 38 39 39 37 35 34 33 32 32 33 34 35 36 37 37 38 38 38 38 37 38 38 39 40 42 42 43 42 42 42 40 39 38 39 40 40 42 43 46 49 49 45 42 42 42 42 42 43 44 42 40 39 38 37 37 39
32 32 31 31 31 31 32 33 33 33 34 34 35 34 30 26 26 30 31 27 24 25 27 29 30 31 32 33 33 33 35 36 35 33 33 32 30 30 30 30 31 33 33 33 34 36 36 36 37 38 40 41 42 43 44 43 42 42 41 40 39 39 39 39 39 40 39 39 43 47 46 42 40 41 41 42 43 42 41 40 39 37 37 37 39
32 31 30 30 30 31 32 32 33 33 32 32 34 35 34 30 24 23 25 27 26 25 24 24 25 25 27 29 30 30 31 32 32 32 32 32 30 29 29 29 31 32 31 31 34 35 36 38 39 39 40 42 43 44 44 44 43 42 42 41 40 40 40 40 40 41 39 37 38 45 48 46 42 41 41 41 41 41 40 39 38 37 36 37 38
30 29 29 29 29 30 31 32 32 32 31 31 31 32 34 35 32 26 22 22 25 26 24 22 22 23 24 25 27 29 30 31 32 32 32 31 29 28 29 29 30 31 31 32 35 37 38 38 39 40 41 42 42 43 43 43 43 43 42 42 41 41 41 41 40 41 41 38 36 37 43 45 42 40 39 39 39 39 39 38 37 37 36 37 38
27 28 28 28 28 29 30 31 31 30 30 30 30 30 31 33 35 34 28 23 23 23 22 22 23 24 24 24 24 26 28 29 30 30 30 30 28 27 29 30 32 33 33 33 34 36 36 36 37 39 40 41 42 42 43 43 43 43 42 42 41 41 41 40 39 39 39 38 34 31 35 41 41 38 38 38 38 38 38 38 37 36 36 37 38
26 26 26 27 28 28 28 29 29 29 28 28 28 29 30 30 33 35 35 32 29 24 22 22 24 26 26 24 23 24 25 26 27 27 28 28 27 26 29 31 33 32 30 29 29 31 32 34 36 38 40 42 43 44 44 44 44 43 43 42 41 40 40 39 38 37 37 35 32 29 30 36 38 37 37 38 38 39 39 39 37 36 37 38 38
24 24 24 25 27 27 27 27 27 27 26 27 27 28 29 30 30 31 33 35 35 33 29 26 24 26 27 26 24 24 24 25 25 25 26 27 27 27 29 30 30 29 26 25 27 29 31 34 36 38 41 42 44 44 45 45 45 44 43 42 41 39 39 38 37 35 34 33 32 28 27 30 34 35 36 36 36 37 38 37 37 36 37 38 38
23 23 23 24 25 26 26 26 25 25 25 25 26 27 28 29 29 30 30 31 33 34 34 32 28 26 26 25 25 25 25 25 25 25 26 27 27 27 27 27 27 28 28 28 29 30 32 34 36 38 40 41 42 43 42 41 41 41 41 40 39 38 37 36 34 32 30 31 31 27 25 26 28 29 31 33 33 34 35 36 36 36 37 38 38
22 22 22 23 24 25 25 24 23 23 23 24 24 25 26 27 28 28 29 31 32 33 34 34 32 29 26 24 25 26 26 25 26 27 26 25 24 23 23 23 24 25 27 28 29 30 32 34 35 37 38 40 40 40 38 37 36 35 34 34 35 35 34 33 31 29 28 29 29 27 25 24 23 24 27 29 31 33 34 34 35 35 37 38 37
20 21 21 22 23 24 24 23 22 22 22 23 24 24 25 26 27 27 28 30 31 32 32 32 31 30 28 26 26 27 27 28 29 29 28 26 23 21 22 22 23 24 26 27 28 30 32 34 35 36 37 39 38 36 35 35 33 30 28 28 30 30 29 27 27 27 27 27 28 29 28 25 22 21 22 25 28 30 31 31 33 36 37 37 36
19 19 20 20 21 22 22 22 21 21 22 22 23 24 24 25 26 27 28 29 29 29 29 28 27 27 27 26 26 28 30 31 30 30 28 27 24 22 22 23 23 24 25 26 27 28 30 32 33 34 36 37 37 34 33 33 30 26 24 24 25 24 23 22 23 24 25 25 26 26 25 22 20 19 21 23 25 28 30 32 34 37 37 36 36
18 18 18 18 20 20 20 20 20 21 21 22 22 23 24 25 25 26 26 27 26 25 24 24 24 24 24 24 25 27 29 29 28 27 27 26 25 23 23 23 24 24 25 25 26 26 28 29 31 33 34 35 35 34 32 30 28 25 24 23 22 20 18 17 19 20 21 23 25 25 24 22 21 21 24 26 25 26 29 33 35 36 36 35 35
17 17 17 17 18 19 19 19 19 20 20 21 22 22 23 23 23 23 23 22 22 21 21 21 22 22 22 22 21 22 23 24 25 25 26 26 25 25 24 24 23 23 24 24 24 25 26 28 29 31 31 32 32 32 32 29 27 25 24 23 22 21 20 19 19 19 20 21 24 26 27 27 25 23 24 26 26 27 30 33 34 34 34 33 33
17 17 16 16 17 18 18 18 19 19 19 20 20 21 21 21 21 20 19 18 18 18 19 21 21 21 21 21 21 21 22 24 25 26 26 26 25 25 24 24 23 23 22 22 23 24 25 27 28 29 29 29 29 30 30 28 26 25 23 21 21 21 22 22 22 21 20 20 23 26 27 27 25 23 23 25 26 28 31 33 32 32 31 31 31
16 15 15 16 16 17 17 18 18 18 19 19 19 19 19 18 18 17 16 16 16 17 19 20 21 21 21 21 21 22 23 24 26 27 28 28 27 27 26 25 24 23 22 21 21 21 22 24 25 26 26 26 26 26 27 26 24 23 22 20 19 19 19 19 20 20 19 21 23 25 24 23 23 23 24 25 27 28 30 30 30 30 29 29 29
15 14 14 15 15 16 16 16 17 18 18 17 17 17 16 16 15 14 14 15 16 17 18 20 21 21 22 22 23 23 24 25 26 27 27 28 28 28 28 27 26 25 24 22 21 21 21 21 22 23 24 24 24 23 23 23 22 21 20 18 18 17 16 15 15 15 16 19 20 20 20 21 22 23 24 25 25 25 26 26 26 26 26 26 27
14 13 13 14 15 15 15 15 16 16 16 16 15 14 14 14 13 13 14 15 16 17 18 19 20 21 22 22 23 24 25 25 26 26 27 27 28 28 28 28 28 27 26 25 23 22 22 22 22 22 22 22 22 21 20 20 19 18 17 16 15 15 15 14 13 11 10 11 13 14 16 18 19 19 19 20 20 21 21 21 22 22 23 24 25
13 13 13 14 14 14 14 14 14 14 15 15 14 13 12 12 13 13 14 15 16 17 18 19 20 20 21 22 23 24 24 25 25 26 26 26 27 27 27 28 28 28 27 27 25 25 24 24 24 24 24 23 22 20 20 19 19 17 16 15 14 14 13 13 13 12 10 9 8 9 10 12 13 13 14 15 15 16 16 16 17 19 20 21 22
12 12 12 13 14 14 14 14 13 13 13 13 13 12 12 12 12 13 13 15 16 17 18 19 19 20 21 22 23 23 24 25 25 26 26 26 26 27 27 27 27 27 27 27 27 27 26 26 26 26 26 26 25 23 21 19 18 18 17 16 15 15 14 13 13 12 11 10 8 6 5 5 6 7 8 9 10 11 12 13 14 15 16 18 19
11 11 11 12 13 13 13 13 12 12 12 12 12 12 12 12 12 12 13 14 15 16 17 18 19 20 20 21 22 23 24 24 25 26 26 26 26 27 27 27 27 27 27 27 27 28 28 29 28 28 28 29 29 28 26 24 21 19 18 18 17 16 14 13 12 12 11 10 9 7 6 5 3 3 3 5 6 7 9 10 11 13 14 15 16
11 10 11 12 12 13 13 13 12 12 11 11 11 11 11 11 11 12 13 14 15 16 16 17 18 19 20 20 21 22 22 23 24 25 26 26 27 27 27 27 27 27 27 27 27 27 28 29 30 30 30 30 30 31 31 29 27 25 23 21 19 17 15 14 13 13 12 10 9 9 8 7 5 3 1 1 3 4 6 8 9 11 12 13 14
10 10 11 11 12 12 12 12 12 12 11 11 11 11 10 11 11 12 12 13 14 14 15 16 17 18 19 19 20 21 22 23 23 24 24 25 26 26 27 27 28 28 28 27 26 26 27 27 28 29 29 30 30 31 31 31 31 29 27 25 23 21 19 18 17 16 14 13 12 11 10 9 7 5 3 2 1 3 5 6 8 9 10 12 13
10 10 10 11 11 12 12 12 11 11 11 10 10 10 10 10 11 12 12 13 13 14 14 15 16 17 17 18 19 20 21 21 22 23 23 24 24 25 26 26 27 27 27 27 27 26 26 26 26 27 27 28 28 29 30 30 30 30 29 28 26 25 24 23 21 20 19 17 16 14 12 10 9 7 6 4 3 3 4 5 7 8 10 11 13
Wind_Direction
17 11 5 1 356 352 348 343 340 336 334 332 331 331 329 327 326 323 323 323 321 321 320 320 319 318 317 316 315 315 314 314 315 315 315 315 316 315 314 312 309 307 305 302 302 303 303 303 303 304 304 297 289 280 272 266 263 262 262 262 261 259 260 263 265 267 267 267 267 267 266 264 262 260 259 258 257 256 257 256 255 253 251 249 246
12 7 2 359 355 352 348 344 340 336 335 332 330 330 329 327 325 322 321 320 319 319 317 316 315 315 314 314 313 313 312 312 312 311 311 311 311 312 312 312 310 308 307 304 303 302 300 300 301 302 304 302 299 295 288 278 270 265 263 262 262 261 260 261 264 267 268 266 266 266 265 263 261 260 259 258 258 257 257 256 255 254 254 252 249
358 355 352 351 349 347 344 341 338 336 334 333 331 330 328 327 325 323 322 320 319 319 318 317 314 312 311 311 311 311 311 311 311 309 309 309 308 308 308 308 308 307 306 305 304 303 300 298 298 300 302 300 299 299 298 293 285 276 269 265 263 263 261 261 262 265 267 268 266 265 264 262 261 260 259 259 260 259 257 257 256 255 254 254 251
341 339 339 340 340 339 338 336 334 332 331 330 329 328 327 326 325 323 321 320 318 318 317 316 315 313 311 310 309 309 309 309 309 308 307 307 306 305 304 304 304 303 303 303 303 302 300 298 297 297 298 297 296 297 298 297 295 290 283 275 268 265 264 262 262 264 268 269 267 265 264 263 262 261 260 259 258 258 257 257 256 255 254 253 252
330 329 327 327 328 329 330 329 327 325 325 325 325 326 326 325 324 323 321 319 317 316 315 313 313 313 312 311 310 309 308 308 306 305 304 304 304 303 302 301 299 299 298 298 299 299 298 297 295 295 294 293 293 294 294 295 295 293 290 286 280 273 268 264 263 263 266 268 268 267 265 262 261 260 259 258 257 256 256 255 255 254 253 252 250
320 317 315 315 317 319 321 321 320 319 318 320 321 322 322 322 321 320 319 318 316 315 314 313 312 311 311 311 310 309 308 307 305 304 303 301 300 299 298 297 296 295 294 293 293 294 294 294 293 293 291 289 289 290 291 291 291 290 289 289 287 283 276 270 265 264 264 265 267 268 266 263 260 259 257 256 256 255 255 254 253 252 251 250 249
303 301 302 304 306 309 312 312 313 313 313 315 317 317 317 316 316 316 315 315 314 314 313 312 312 311 310 308 308 307 306 304 303 303 301 300 298 296 294 293 291 290 290 289 288 288 288 288 289 290 289 288 286 286 286 286 286 285 285 286 287 285 281 277 271 266 265 265 266 267 266 265 262 259 257 256 256 255 254 253 252 251 250 249 248
288 288 290 294 298 302 304 305 305 306 307 309 311 311 311 310 311 311 311 311 311 311 310 310 309 308 307 306 305 304 303 301 301 300 299 298 297 296 295 293 291 289 287 285 285 284 283 282 282 283 285 286 286 284 283 282 282 282 281 281 283 283 282 280 276 271 267 265 265 266 266 266 264 261 257 254 252 251 250 250 251 251 250 249 248
280 283 286 290 295 298 299 300 300 301 303 305 306 306 306 307 307 308 308 308 308 307 306 306 305 305 304 303 302 302 301 300 299 299 298 297 296 296 295 294 293 292 289 285 283 281 281 280 279 279 279 280 282 283 282 280 278 278 278 278 278 279 280 279 276 273 270 267 266 266 265 265 263 261 257 253 250 250 250 250 250 251 251 251 250
284 286 289 291 293 294 295 296 297 299 301 303 304 305 306 307 307 307 307 306 305 305 304 303 303 303 302 302 301 300 299 299 298 298 298 298 297 296 294 293 292 291 290 288 285 281 279 278 277 277 277 276 276 277 279 279 278 276 275 275 275 275 276 277 275 273 270 267 266 265 264 263 262 260 257 256 255 254 253 252 252 251 251 251 250
294 294 293 292 292 292 293 294 296 298 300 302 304 305 306 306 306 306 306 305 304 304 303 303 302 302 302 301 300 299 298 297 297 296 295 293 292 292 291 289 288 287 286 285 284 283 281 278 277 275 275 275 274 274 275 276 276 275 273 272 271 271 271 272 274 273 270 267 267 265 262 262 263 260 258 259 258 255 254 254 253 253 250 248 249
299 296 294 292 292 292 294 295 298 300 302 303 304 304 305 305 305 305 304 304 304 304 303 303 302 302 301 300 299 298 297 296 295 293 292 290 289 288 286 285 284 282 281 280 280 280 280 279 278 277 275 274 273 273 273 273 273 274 274 271 269 268 267 267 269 271 270 268 267 266 263 263 264 261 258 259 258 256 255 254 253 252 250 248 249
297 295 294 294 295 296 298 299 301 303 303 304 305 305 306 306 306 306 306 305 305 304 304 303 303 302 301 299 298 297 296 295 294 293 292 291 289 287 285 282 279 277 276 276 276 276 276 277 277 277 276 275 274 274 273 272 272 273 275 274 270 267 264 263 264 266 267 267 266 266 266 265 264 263 260 258 258 257 255 253 252 252 250 249 250
298 297 297 297 298 299 301 302 303 304 305 306 307 307 308 308 308 308 307 307 306 306 305 304 304 303 301 299 298 296 295 295 294 293 292 292 290 288 285 281 278 276 274 273 273 272 272 272 272 272 272 273 273 274 274 274 274 274 274 275 273 270 265 262 260 261 263 264 264 266 268 267 266 267 265 258 256 255 254 253 253 252 252 254 256
301 299 298 298 299 301 303 304 305 306 307 308 309 309 309 309 309 309 308 308 307 307 306 305 304 302 300 299 298 297 296 296 295 294 294 293 292 289 285 282 279 277 275 273 273 272 271 270 270 270 270 270 271 272 274 276 276 275 274 273 273 272 269 264 260 258 259 262 262 264 268 269 269 270 267 261 256 255 255 255 256 256 257 258 259
301 299 300 301 303 305 306 307 308 308 309 309 310 310 310 310 310 310 309 309 308 307 307 305 304 302 301 301 300 298 298 298 298 297 297 296 294 291 288 285 282 279 276 274 273 272 271 271 271 271 271 271 271 271 272 273 275 275 275 273 272 272 270 268 264 260 258 259 261 263 265 267 269 269 268 263 258 256 256 256 255 255 254 253 253
300 300 302 304 306 308 308 309 309 310 311 311 311 311 311 311 311 311 311 310 310 308 307 306 305 304 303 303 302 301 300 301 301 300 299 298 296 294 292 290 287 285 282 279 276 273 271 270 270 271 271 271 271 272 272 272 272 272 273 273 272 271 269 268 267 266 262 259 259 260 262 263 265 267 266 262 259 257 254 251 250 248 246 245 246
300 302 305 307 308 309 309 310 311 312 312 312 311 311 312 312 313 312 312 311 310 309 308 307 306 306 305 305 305 303 302 303 304 303 301 299 298 296 294 292 290 289 289 288 286 284 281 278 275 274 273 273 274 275 273 271 269 269 269 270 270 270 269 268 267 268 268 264 260 259 259 260 261 263 264 262 259 255 251 249 248 245 243 242 244
303 305 307 308 309 310 311 312 312 312 312 312 312 313 313 314 314 313 312 311 310 309 309 308 307 307 307 306 306 305 304 305 306 305 303 301 299 296 294 292 290 290 291 290 290 289 288 286 284 281 278 277 278 277 274 271 269 267 267 269 269 269 270 270 269 269 269 268 265 262 259 258 258 260 262 262 259 254 249 248 248 245 242 242 243
305 307 308 309 310 311 312 312 313 312 312 313 314 314 315 315 315 314 312 311 311 310 309 308 307 307 308 307 307 308 307 308 309 309 306 303 299 296 293 292 292 292 292 292 293 294 294 293 291 289 286 284 282 280 277 273 270 267 266 266 267 268 269 270 269 268 268 268 268 267 264 260 258 259 260 261 260 255 250 248 246 245 243 243 243
306 307 308 310 311 312 313 313 313 313 314 314 314 315 316 315 315 314 313 312 312 310 309 308 307 307 309 310 310 310 312 312 314 315 312 308 304 299 295 293 293 294 295 295 295 295 295 294 293 292 290 288 287 285 283 279 275 272 268 264 263 265 267 268 268 268 268 267 267 267 265 262 259 259 260 260 259 257 253 250 247 245 243 242 242
306 308 309 311 312 312 313 313 313 314 314 315 315 315 316 315 314 314 314 313 312 309 308 309 310 310 311 313 313 314 315 316 318 320 319 315 311 303 296 293 293 294 295 295 293 293 293 294 293 292 291 289 288 286 284 280 277 275 273 269 267 266 266 266 266 266 266 266 264 262 262 261 260 258 259 259 258 257 255 253 251 248 246 245 243
307 309 311 311 312 313 313 313 314 315 315 315 315 315 315 315 314 314 314 314 311 308 310 313 314 314 315 316 316 316 317 320 323 325 325 323 317 306 296 293 293 293 293 293 293 294 295 295 296 296 294 291 289 289 286 282 277 274 273 272 272 272 270 268 265 264 263 262 260 258 257 258 258 257 257 257 257 257 256 255 255 252 249 248 246
308 310 311 311 312 313 313 314 315 315 315 315 314 314 315 316 315 315 315 313 310 309 313 317 318 318 318 319 320 322 326 329 329 329 328 326 320 311 301 297 296 295 293 294 295 296 296 297 298 298 295 291 290 289 288 286 282 276 273 272 272 273 273 270 267 264 263 261 258 256 254 254 255 255 254 254 255 257 258 257 257 255 253 251 249
309 310 311 311 312 313 313 314 315 315 315 315 314 315 317 317 315 315 314 312 310 312 317 320 321 321 323 325 327 330 331 330 328 328 327 326 324 321 318 314 309 301 297 296 297 297 296 296 296 295 293 293 294 292 290 291 289 283 278 275 272 269 270 271 270 268 265 261 258 255 254 253 253 254 254 254 255 256 257 256 256 256 255 253 251
309 310 311 311 312 313 313 313 314 314 314 315 315 317 319 317 315 314 314 312 313 316 320 322 323 325 327 327 327 327 327 326 324 323 324 325 326 326 325 320 315 308 303 303 303 301 300 299 299 299 300 300 299 297 294 293 291 287 283 280 274 270 269 270 271 271 269 264 259 256 254 252 252 253 253 253 254 253 253 254 254 254 254 254 252
309 310 310 311 312 313 313 313 313 314 314 316 316 318 320 318 314 313 314 315 317 320 323 324 326 326 325 324 322 321 321 320 319 320 323 324 324 322 320 316 314 312 310 309 310 309 307 307 306 305 304 302 298 295 295 294 293 292 289 285 280 274 270 269 269 269 269 266 262 258 254 251 249 249 250 250 251 250 250 250 250 251 253 254 252
308 309 310 310 311 312 312 312 313 314 315 317 318 319 321 320 315 314 317 320 321 322 323 323 322 321 319 318 317 317 316 316 318 320 321 320 318 317 315 313 313 311 310 311 311 309 307 306 306 305 303 301 298 297 296 296 294 293 291 288 284 279 275 272 269 267 266 266 264 260 254 248 245 246 247 247 248 248 248 248 248 249 252 253 251
307 308 308 309 310 311 311 312 314 316 317 317 318 319 323 323 319 318 320 324 325 320 314 311 311 313 312 312 312 312 312 313 315 315 314 314 315 314 313 312 310 308 308 309 307 304 302 302 303 303 301 299 298 296 295 295 294 293 291 289 286 282 278 275 273 269 267 266 263 259 254 247 243 243 244 244 245 247 247 246 247 248 249 250 250
306 306 307 308 310 311 312 313 316 318 318 318 318 319 322 325 323 319 319 324 329 324 314 308 306 307 306 306 307 306 306 308 310 310 310 311 314 313 310 309 308 306 306 306 303 301 300 300 299 298 297 297 297 296 296 295 294 292 291 288 285 282 278 276 275 273 272 271 263 255 253 251 247 244 243 243 243 246 246 245 246 246 246 247 248
304 305 306 308 310 312 313 315 317 318 318 319 320 321 322 325 324 320 320 325 331 331 327 322 318 314 309 306 306 306 306 307 309 310 310 309 309 309 309 308 308 307 306 304 301 300 299 298 297 297 296 297 297 296 296 296 294 292 290 287 285 283 279 276 275 274 276 278 268 253 248 250 248 243 241 241 242 243 245 244 244 245 245 247 248
302 304 306 308 311 313 314 316 318 319 319 321 322 322 324 326 325 323 325 331 334 334 334 333 330 328 323 317 313 312 311 312 311 310 309 308 308 309 310 309 306 303 301 299 297 296 296 296 296 296 295 296 296 295 295 296 294 293 292 288 285 284 281 277 277 276 276 280 278 259 243 241 240 237 237 240 240 241 243 243 243 245 246 246 247
302 304 307 309 312 314 315 317 319 320 321 322 323 324 327 328 327 326 330 337 338 336 337 338 337 335 331 327 323 318 315 313 312 311 311 311 312 313 312 307 302 299 298 298 296 295 295 296 297 297 297 298 299 298 297 297 296 294 292 289 286 285 283 279 278 278 277 279 282 273 251 241 239 239 239 240 240 241 241 242 244 246 247 246 245
302 305 309 311 313 314 316 318 320 321 322 323 324 326 328 328 327 328 333 338 340 340 341 340 340 338 335 332 329 324 319 315 313 314 316 317 318 317 311 305 301 299 298 298 298 299 301 302 303 305 306 306 305 303 301 299 297 295 293 290 287 286 286 282 276 276 277 276 279 278 261 244 239 239 238 238 240 241 241 242 244 246 246 245 243
302 306 309 312 313 315 317 320 322 322 322 323 326 329 329 327 328 330 333 335 336 339 341 340 339 339 338 336 332 327 322 319 319 322 326 326 323 318 312 309 310 311 311 311 313 314 314 313 313 314 313 310 308 306 302 299 297 294 292 290 288 286 285 281 274 272 274 273 276 278 264 243 234 235 238 237 236 236 238 240 243 245 246 245 242
302 306 309 312 313 315 319 323 323 323 323 326 329 329 327 326 328 332 333 333 333 335 337 338 338 337 337 336 333 328 325 326 328 331 333 329 322 317 317 319 323 325 325 326 327 325 322 321 320 319 318 315 312 310 307 302 298 293 289 288 287 285 283 279 272 269 269 269 272 275 264 245 235 236 241 241 238 238 241 243 244 245 246 245 241
303 307 311 312 313 316 321 324 325 325 326 328 329 327 325 327 330 333 334 335 335 334 335 336 336 336 336 338 337 332 331 334 337 336 334 330 324 322 323 327 329 329 328 330 331 329 326 325 326 327 328 326 323 320 318 315 308 300 294 289 286 283 281 275 268 265 266 267 269 269 263 252 243 241 244 244 240 239 242 245 246 246 245 242 238
305 309 312 313 315 319 323 324 325 326 328 329 328 326 327 330 335 337 339 339 337 335 335 336 337 339 339 340 339 337 338 341 342 341 339 337 334 333 333 332 331 330 330 332 333 330 326 327 330 334 336 335 333 333 334 330 322 312 305 299 292 287 283 274 266 264 265 265 266 266 261 253 248 247 247 244 242 241 242 244 245 244 241 237 234
305 310 313 315 318 322 323 325 326 329 331 330 329 330 333 337 341 343 343 342 339 338 338 341 345 347 346 345 346 344 342 341 341 340 340 339 337 338 337 334 332 332 332 332 332 330 328 329 334 338 340 340 341 344 344 339 330 322 314 307 298 290 283 274 268 268 267 263 260 260 256 251 252 256 252 246 246 247 249 249 247 243 240 238 236
307 311 314 317 322 323 325 327 330 332 333 333 333 336 341 345 347 347 346 344 342 342 346 351 356 357 357 357 354 345 339 339 341 342 342 341 340 341 341 338 335 334 333 331 331 331 330 333 337 340 341 342 344 348 350 346 339 331 320 310 301 292 285 277 272 271 269 261 255 254 257 260 263 262 253 246 244 247 249 250 248 245 243 242 240
309 313 317 322 325 325 327 331 333 335 336 337 339 343 347 349 350 351 350 349 348 351 359 6 10 9 9 11 6 355 350 353 356 356 354 352 349 347 348 344 339 336 335 333 334 334 334 337 340 341 341 342 345 349 351 351 350 344 331 316 304 294 287 283 279 275 268 256 248 248 255 261 263 259 249 241 240 245 250 249 247 245 242 240 237
310 313 319 325 327 328 331 334 336 338 339 342 346 349 351 353 355 355 356 357 359 3 10 16 19 19 20 20 19 14 12 13 12 10 9 7 3 360 359 355 348 344 341 340 340 340 339 340 341 342 343 344 347 349 350 351 353 353 347 334 319 305 296 291 289 284 273 257 246 246 252 257 258 256 250 242 240 244 248 246 243 241 239 236 232
310 315 322 327 331 333 335 336 337 340 343 348 351 354 356 358 360 360 2 7 11 14 17 19 21 23 23 22 22 21 21 21 21 20 19 17 14 12 10 6 1 357 353 350 349 349 347 345 344 344 346 347 348 350 352 354 355 354 352 347 339 328 316 305 295 288 276 261 251 250 255 257 254 251 250 249 246 245 244 241 238 236 235 233 230
309 315 322 328 333 337 337 336 338 343 348 353 356 358 360 2 2 4 9 14 17 20 21 20 20 21 22 21 22 22 22 23 23 22 21 20 19 17 16 14 11 8 5 2 0 359 357 355 352 350 350 350 350 351 353 357 359 359 358 358 356 352 344 330 311 295 279 265 256 254 258 259 256 251 250 250 247 242 239 237 235 234 233 231 227
307 314 323 330 335 336 337 338 341 345 349 354 358 360 0 1 3 7 11 15 19 22 23 21 20 20 20 21 22 22 22 22 22 21 21 20 19 19 19 18 17 16 15 14 14 13 12 11 8 4 0 357 355 356 358 0 3 5 8 12 15 16 14 9 1 348 326 299 282 272 267 262 257 252 248 245 242 240 238 238 237 234 232 230 226
305 314 325 332 334 335 337 340 343 345 348 352 355 357 359 1 4 8 12 16 19 21 21 21 20 20 20 21 23 23 23 22 22 21 21 20 20 20 20 20 21 21 21 21 22 22 24 24 22 20 17 12 7 5 5 5 6 8 12 19 24 29 32 33 32 31 26 11 345 315 291 273 259 249 244 240 238 238 237 237 236 234 231 229 226
305 316 325 330 332 336 338 340 342 344 346 347 348 351 356 1 3 7 11 15 18 19 19 19 20 20 21 22 22 23 24 24 23 22 21 20 20 21 20 20 22 23 24 25 26 27 29 30 30 31 31 28 25 21 17 15 14 13 14 18 23 27 32 36 39 43 47 45 39 26 355 315 282 262 250 243 239 238 236 234 233 231 228 226 223
304 316 323 326 329 334 336 338 340 341 342 341 343 346 353 357 360 4 9 12 15 17 17 18 19 20 21 22 21 22 23 24 23 23 22 21 21 22 22 22 22 22 23 25 27 29 31 32 33 34 36 37 35 33 30 28 27 25 23 24 24 24 26 30 35 41 46 46 48 52 51 34 1 310 273 250 240 236 232 228 225 224 221 219 216
304 313 318 321 326 330 333 335 338 339 338 338 339 343 349 353 355 360 6 9 11 12 13 15 16 17 19 20 20 20 21 22 23 23 23 22 22 22 22 23 24 24 24 24 26 29 32 34 34 34 36 37 38 38 36 34 34 34 35 34 33 32 32 35 39 42 46 48 51 54 54 49 42 30 356 248 229 224 221 219 217 214 211 206 202
303 309 313 316 321 325 327 330 334 335 334 335 336 339 344 348 351 355 0 3 5 7 9 11 12 13 14 16 17 17 18 19 20 20 21 22 22 22 23 24 25 25 24 24 25 27 30 33 35 36 36 36 38 39 38 36 36 37 38 40 42 43 44 45 47 48 48 51 54 55 55 54 55 57 67 97 163 194 200 200 200 198 196 193 189
301 306 309 312 315 317 319 322 327 328 328 331 334 335 338 343 347 351 354 354 356 359 2 4 6 8 9 10 11 12 14 15 15 16 18 19 20 21 22 23 24 25 25 24 25 25 27 30 33 35 36 37 38 40 40 40 38 38 39 41 45 48 49 50 52 53 52 52 52 53 55 58 62 67 75 86 103 134 160 173 179 181 181 181 182